Location: Claflin County Park
(44.8478°N, 87.5507°W)
Time: 17:34:10
(UTC+00:00)

Cosmos 2151 - Pass Details

Date: 10 December 2025
Orbit: 559 x 576 km, 82.5° (Epoch: 22 January)

Event Time Altitude Azimuth Distance (km) Brightness Sun altitude
Rises 11:47:31 0° 171° (S) 2,734 6.7 -15.2°
Reaches altitude 10° 11:49:44 10° 164° (SSE) 1,845 5.9 -14.8°
Maximum altitude 11:53:35 43° 93° (E) 797 4.2 -14.2°
Drops below altitude 10° 11:57:29 10° 22° (NNE) 1,869 5.6 -13.5°
Sets 11:59:45 0° 15° (NNE) 2,773 6.4 -13.2°
